Total_Precipitation_Accumulation
0.32 0.68 0.94 0.84 0.77 0.77 0.74 0.72 0.74 0.63 0.57 0.60 0.55 0.49 0.53 0.55 0.58 0.52 0.52 0.51 0.42 0.38 0.40 0.38 0.32 0.34 0.37 0.49 0.60 0.77 1.13 1.56 1.73 1.61 1.57 1.62 1.72 1.70 1.60 1.56 1.53 1.58 1.57 1.57
0.37 0.48 0.39 0.43 0.48 0.60 0.69 0.74 0.76 0.66 0.48 0.48 0.48 0.42 0.42 0.48 0.49 0.46 0.43 0.45 0.40 0.35 0.31 0.28 0.24 0.28 0.33 0.50 0.65 0.77 1.06 1.51 1.70 1.80 1.92 2.12 2.30 2.18 2.04 2.02 1.97 2.04 2.06 2.21
0.33 0.29 0.23 0.35 0.52 0.63 0.68 0.71 0.70 0.64 0.49 0.44 0.42 0.44 0.39 0.44 0.40 0.37 0.37 0.39 0.34 0.27 0.25 0.25 0.24 0.27 0.32 0.44 0.56 0.70 0.90 1.20 1.55 1.80 2.06 2.33 2.56 2.53 2.41 2.24 2.23 2.29 2.34 2.50
0.33 0.27 0.27 0.35 0.44 0.54 0.70 0.48 0.44 0.44 0.57 0.59 0.44 0.64 0.46 0.45 0.41 0.36 0.37 0.37 0.35 0.30 0.28 0.31 0.28 0.29 0.32 0.40 0.49 0.64 0.84 1.07 1.32 1.56 1.95 2.38 2.67 2.76 2.66 2.57 2.54 2.49 2.51 2.56
0.30 0.25 0.28 0.33 0.34 0.41 0.52 0.41 0.41 0.43 0.52 0.48 0.34 0.47 0.45 0.38 0.40 0.36 0.33 0.32 0.32 0.30 0.32 0.35 0.35 0.37 0.40 0.42 0.47 0.60 0.75 0.98 1.23 1.45 1.80 2.19 2.47 2.68 2.82 2.65 2.52 2.54 2.57 2.60
0.26 0.20 0.21 0.27 0.31 0.34 0.41 0.44 0.43 0.45 0.50 0.54 0.27 0.39 0.50 0.36 0.32 0.33 0.30 0.27 0.29 0.31 0.37 0.41 0.50 0.54 0.54 0.48 0.53 0.63 0.74 0.89 1.05 1.19 1.40 1.63 1.98 2.22 2.55 2.54 2.47 2.59 2.57 2.49
0.30 0.26 0.22 0.24 0.31 0.34 0.40 0.61 0.78 0.77 0.73 0.50 0.22 0.36 0.50 0.36 0.29 0.30 0.31 0.29 0.29 0.33 0.39 0.48 0.61 0.67 0.68 0.58 0.55 0.58 0.73 0.82 0.89 0.99 1.08 1.22 1.47 1.64 2.01 2.32 2.29 2.22 2.26 2.32
0.33 0.33 0.21 0.21 0.27 0.32 0.34 0.53 0.83 0.92 0.80 0.52 0.36 0.53 0.57 0.41 0.33 0.30 0.29 0.32 0.36 0.40 0.46 0.63 0.79 0.83 0.82 0.71 0.63 0.62 0.74 0.82 0.86 0.91 0.93 1.01 1.14 1.24 1.41 1.64 1.74 1.77 1.82 2.05
0.34 0.29 0.19 0.20 0.20 0.21 0.29 0.35 0.41 0.59 0.57 0.58 0.56 0.64 0.57 0.39 0.37 0.37 0.38 0.42 0.52 0.61 0.65 0.78 0.94 1.00 0.89 0.79 0.71 0.70 0.77 0.89 0.90 0.92 0.95 1.04 1.07 1.07 1.18 1.21 1.35 1.53 1.57 1.62
0.35 0.33 0.22 0.21 0.22 0.21 0.21 0.27 0.43 0.64 0.81 0.83 0.67 0.67 0.65 0.55 0.51 0.48 0.52 0.57 0.68 0.79 0.85 0.94 1.09 1.13 0.97 0.82 0.73 0.71 0.76 0.89 1.07 1.19 1.15 1.12 1.19 1.25 1.46 1.49 1.34 1.31 1.46 1.51
0.46 0.46 0.27 0.24 0.24 0.24 0.25 0.35 0.50 0.67 0.69 0.95 1.05 0.97 0.76 0.69 0.69 0.71 0.74 0.78 0.85 0.97 0.97 0.95 1.05 1.11 1.01 0.81 0.72 0.68 0.71 0.81 0.95 1.00 1.05 1.03 1.11 1.22 1.48 1.70 1.64 1.46 1.44 1.46
0.44 0.59 0.41 0.28 0.26 0.28 0.34 0.45 0.66 1.00 0.95 0.87 1.05 1.04 0.76 0.68 0.71 0.72 0.72 0.72 0.77 0.88 0.89 0.92 0.96 0.91 0.83 0.69 0.60 0.57 0.59 0.70 0.82 0.82 0.86 0.94 0.96 1.07 1.19 1.30 1.32 1.26 1.17 1.13
0.56 0.79 0.77 0.62 0.58 0.46 0.53 0.55 0.63 0.82 0.94 0.95 1.08 1.05 0.71 0.63 0.57 0.59 0.62 0.65 0.68 0.68 0.68 0.69 0.71 0.68 0.67 0.66 0.63 0.57 0.58 0.65 0.72 0.76 0.82 0.87 0.89 0.91 0.95 0.97 0.90 0.94 0.95 1.00
0.56 0.66 0.75 0.80 0.77 0.72 0.69 0.58 0.54 0.75 1.04 0.95 0.91 0.86 0.69 0.61 0.56 0.58 0.60 0.61 0.64 0.57 0.49 0.50 0.52 0.56 0.61 0.63 0.64 0.61 0.57 0.63 0.72 0.87 0.93 0.96 0.97 0.97 0.97 0.95 0.92 0.93 0.94 0.97
0.46 0.47 0.38 0.36 0.38 0.50 0.54 0.46 0.46 0.55 0.65 0.81 0.77 0.72 0.60 0.56 0.60 0.62 0.60 0.56 0.53 0.46 0.40 0.40 0.41 0.45 0.47 0.49 0.53 0.56 0.53 0.58 0.66 0.80 0.90 0.93 0.97 1.00 0.95 0.87 0.83 0.88 0.87 0.86
0.35 0.38 0.31 0.27 0.26 0.36 0.43 0.42 0.42 0.43 0.46 0.57 0.62 0.62 0.49 0.45 0.44 0.45 0.42 0.36 0.36 0.37 0.32 0.30 0.31 0.33 0.33 0.33 0.36 0.38 0.46 0.56 0.61 0.70 0.81 0.97 1.01 0.92 0.86 0.77 0.76 0.77 0.76 0.75
0.33 0.42 0.50 0.40 0.31 0.36 0.59 0.56 0.56 0.58 0.52 0.52 0.46 0.37 0.25 0.25 0.27 0.31 0.31 0.31 0.34 0.33 0.28 0.26 0.27 0.27 0.27 0.30 0.35 0.39 0.47 0.56 0.56 0.63 0.77 0.97 0.95 0.84 0.78 0.81 0.83 0.79 0.76 0.77
0.28 0.44 0.62 0.49 0.48 0.79 0.91 0.64 0.61 0.58 0.38 0.24 0.17 0.15 0.15 0.21 0.20 0.19 0.21 0.23 0.26 0.26 0.22 0.21 0.21 0.21 0.21 0.24 0.30 0.34 0.39 0.42 0.46 0.54 0.65 0.80 0.81 0.79 0.82 0.80 0.77 0.72 0.67 0.65
0.27 0.47 0.69 0.58 0.60 0.75 0.69 0.45 0.37 0.38 0.28 0.12 0.09 0.11 0.13 0.15 0.15 0.12 0.13 0.14 0.14 0.15 0.12 0.12 0.13 0.14 0.13 0.13 0.16 0.20 0.23 0.26 0.31 0.40 0.51 0.63 0.63 0.67 0.68 0.66 0.65 0.62 0.58 0.59
0.41 0.53 0.78 0.72 0.82 0.77 0.41 0.22 0.20 0.28 0.37 0.14 0.09 0.09 0.08 0.09 0.13 0.09 0.07 0.08 0.08 0.08 0.07 0.06 0.07 0.08 0.08 0.09 0.11 0.13 0.16 0.20 0.23 0.31 0.40 0.51 0.54 0.56 0.56 0.61 0.63 0.62 0.58 0.55
0.44 0.55 0.66 0.69 0.89 0.70 0.31 0.17 0.19 0.35 0.43 0.18 0.10 0.08 0.06 0.06 0.06 0.05 0.06 0.06 0.06 0.06 0.05 0.05 0.05 0.06 0.08 0.10 0.09 0.09 0.13 0.16 0.19 0.22 0.29 0.35 0.43 0.51 0.60 0.66 0.66 0.68 0.64 0.59
0.53 0.57 0.55 0.63 0.79 0.71 0.32 0.25 0.31 0.30 0.19 0.13 0.09 0.07 0.06 0.05 0.04 0.03 0.04 0.04 0.05 0.05 0.05 0.05 0.05 0.06 0.08 0.10 0.09 0.08 0.11 0.15 0.17 0.17 0.22 0.31 0.39 0.48 0.58 0.69 0.73 0.70 0.68 0.66
0.55 0.59 0.62 0.69 0.78 0.53 0.34 0.33 0.30 0.24 0.20 0.13 0.08 0.05 0.05 0.05 0.04 0.03 0.03 0.04 0.05 0.06 0.05 0.05 0.05 0.05 0.06 0.08 0.10 0.09 0.11 0.13 0.13 0.14 0.18 0.25 0.30 0.32 0.40 0.51 0.61 0.66 0.67 0.66
0.38 0.38 0.47 0.56 0.49 0.31 0.29 0.28 0.23 0.21 0.17 0.09 0.07 0.05 0.05 0.05 0.04 0.03 0.03 0.03 0.04 0.05 0.05 0.06 0.06 0.06 0.07 0.07 0.08 0.10 0.11 0.12 0.13 0.16 0.18 0.20 0.22 0.22 0.25 0.37 0.44 0.49 0.55 0.60
0.32 0.38 0.43 0.49 0.44 0.30 0.24 0.24 0.22 0.19 0.13 0.08 0.07 0.06 0.05 0.05 0.04 0.03 0.03 0.03 0.03 0.04 0.04 0.05 0.05 0.07 0.08 0.07 0.08 0.10 0.12 0.13 0.14 0.15 0.15 0.16 0.18 0.20 0.22 0.28 0.38 0.44 0.49 0.53
0.26 0.36 0.49 0.53 0.46 0.41 0.26 0.21 0.18 0.16 0.12 0.08 0.07 0.06 0.05 0.05 0.05 0.04 0.03 0.03 0.04 0.05 0.05 0.06 0.06 0.07 0.08 0.09 0.08 0.11 0.13 0.13 0.18 0.20 0.17 0.16 0.17 0.21 0.23 0.25 0.29 0.31 0.35 0.36